Location: Alexandria
(38.8050°N, 77.0470°W)
Time: 21:26:35

N. Korean satellite - Pass Details

Date: 09 March 2018
Orbit: 460 x 512 km, 97.2° (Epoch: 18 March)

Event Time Altitude Azimuth Distance (km) Brightness Sun altitude
Rises 18:38:52 0° 193° (SSW) 2,507 10.4 -6.6°
Reaches altitude 10° 18:41:08 10° 206° (SSW) 1,644 9.6 -7.0°
Maximum altitude 18:44:08 26° 264° (W) 995 9.3 -7.6°
Drops below altitude 10° 18:47:11 10° 322° (NW) 1,682 9.9 -8.2°
Sets 18:49:32 0° 336° (NNW) 2,579 10.6 -8.7°
